WXM80 ListenWXM80 Stop

You find our weather info also at:

UK Metoffice

WeatherCloud

Weather Underground

Northeastern Weather Network

AWEKAS

Citizen Weather Observer Program (CWOP)

HAMweather, WeatherForYou, PWS Weather


Weather Underground History page Text

Daily Summary for December 8, 2017 Units:  English    Metric   Both
« Previous Day
Next Day »
Daily Weekly Monthly Yearly Custom
  High: Low: Average:
Temperature: 40.8 °F 35.9 °F 37.9 °F
Dew Point: 29.2 °F 21.3 °F 23.5 °F
Humidity: 63 % 51 % 56 %
Wind Speed: 10.3 mph 0.0 mph 2.7 mph
Wind Gust: 17.3 mph - -
Wind:- - West
Pressure: 30.10 in 29.95 in -
Precipitation: 0.00 in    
Historical Graphs
 
 
Tabular Data for December 8, 2017
Time Temperature Dew Point Pressure Wind Wind Speed Wind Gust Humidity Rainfall Rate (Hourly)
00:04 40.8 °F 29.2 °F 30.02 in SW 5.7 mph 11.5 mph 63 % 0.00 in
00:14 40.7 °F 28.7 °F 30.02 in West 7.0 mph 10.4 mph 62 % 0.00 in
00:24 40.6 °F 28.6 °F 30.03 in SW 8.4 mph 10.0 mph 62 % 0.00 in
00:29 40.5 °F 28.1 °F 30.02 in WSW 9.3 mph 17.3 mph 61 % 0.00 in
00:34 40.5 °F 28.1 °F 30.02 in WSW 8.4 mph 10.4 mph 61 % 0.00 in
00:45 40.5 °F 27.7 °F 30.02 in SW 4.5 mph 10.4 mph 60 % 0.00 in
00:50 40.4 °F 28.0 °F 30.01 in West 3.2 mph 8.1 mph 61 % 0.00 in
01:05 40.1 °F 26.9 °F 30.01 in West 4.1 mph 8.1 mph 59 % 0.00 in
01:15 39.9 °F 27.1 °F 30.01 in WNW 7.0 mph 13.0 mph 60 % 0.00 in
01:20 39.8 °F 26.2 °F 30.01 in West 6.1 mph 13.8 mph 58 % 0.00 in
01:25 39.7 °F 25.7 °F 30.01 in West 5.7 mph 10.4 mph 57 % 0.00 in
01:30 39.7 °F 26.1 °F 30.02 in WNW 7.9 mph 16.0 mph 58 % 0.00 in
01:35 39.6 °F 26.4 °F 30.02 in SW 3.6 mph 13.8 mph 59 % 0.00 in
01:40 39.6 °F 26.4 °F 30.02 in West 5.6 mph 11.5 mph 59 % 0.00 in
01:45 39.5 °F 25.9 °F 30.02 in West 5.8 mph 11.5 mph 58 % 0.00 in
01:50 39.4 °F 26.2 °F 30.02 in NW 5.6 mph 11.5 mph 59 % 0.00 in
01:55 39.3 °F 26.2 °F 30.02 in WSW 6.3 mph 10.0 mph 59 % 0.00 in
02:00 39.3 °F 26.2 °F 30.03 in West 5.9 mph 12.7 mph 59 % 0.00 in
02:05 39.2 °F 25.6 °F 30.03 in West 4.6 mph 8.1 mph 58 % 0.00 in
02:06 39.2 °F 25.2 °F 30.03 in West 6.1 mph 8.1 mph 57 % 0.00 in
02:11 39.1 °F 25.1 °F 30.03 in West 6.0 mph 9.0 mph 57 % 0.00 in
02:16 39.0 °F 25.0 °F 30.03 in West 6.6 mph 10.4 mph 57 % 0.00 in
02:21 38.9 °F 24.5 °F 30.03 in WSW 7.6 mph 13.8 mph 56 % 0.00 in
02:26 38.9 °F 24.1 °F 30.03 in West 6.1 mph 9.2 mph 55 % 0.00 in
02:31 38.8 °F 24.0 °F 30.04 in West 6.1 mph 10.4 mph 55 % 0.00 in
02:36 38.8 °F 24.4 °F 30.04 in WNW 2.3 mph 8.1 mph 56 % 0.00 in
02:41 38.7 °F 24.3 °F 30.03 in West 6.4 mph 10.4 mph 56 % 0.00 in
02:46 38.6 °F 23.8 °F 30.04 in SW 5.2 mph 11.5 mph 55 % 0.00 in
02:51 38.5 °F 23.7 °F 30.04 in West 5.8 mph 11.5 mph 55 % 0.00 in
03:01 38.4 °F 24.1 °F 30.04 in WNW 5.3 mph 10.4 mph 56 % 0.00 in
03:07 38.3 °F 24.4 °F 30.04 in West 4.3 mph 6.9 mph 57 % 0.00 in
03:12 38.2 °F 24.7 °F 30.04 in WSW 4.3 mph 6.9 mph 58 % 0.00 in
03:27 37.9 °F 23.2 °F 30.04 in WNW 6.0 mph 8.1 mph 55 % 0.00 in
03:37 37.8 °F 22.6 °F 30.05 in WSW 10.3 mph 13.0 mph 54 % 0.00 in
03:42 37.7 °F 22.1 °F 30.05 in WSW 5.4 mph 11.5 mph 53 % 0.00 in
03:57 37.5 °F 22.8 °F 30.04 in WSW 7.0 mph 10.4 mph 55 % 0.00 in
04:03 37.4 °F 22.7 °F 30.04 in WSW 4.2 mph 5.8 mph 55 % 0.00 in
04:08 37.4 °F 22.7 °F 30.04 in West 1.1 mph 3.5 mph 55 % 0.00 in
04:13 37.3 °F 23.0 °F 30.05 in West 3.5 mph 6.9 mph 56 % 0.00 in
04:18 37.1 °F 22.4 °F 30.05 in SW 3.5 mph 9.2 mph 55 % 0.00 in
04:23 37.1 °F 22.4 °F 30.05 in West 4.0 mph 8.1 mph 55 % 0.00 in
04:28 37.0 °F 22.3 °F 30.05 in West 4.3 mph 7.0 mph 55 % 0.00 in
04:33 37.0 °F 22.3 °F 30.06 in West 5.8 mph 13.8 mph 55 % 0.00 in
04:38 36.9 °F 22.2 °F 30.06 in West 1.8 mph 10.4 mph 55 % 0.00 in
04:43 36.9 °F 22.2 °F 30.05 in WSW 5.4 mph 11.5 mph 55 % 0.00 in
04:48 36.9 °F 22.2 °F 30.05 in West 4.4 mph 8.1 mph 55 % 0.00 in
04:53 36.9 °F 22.2 °F 30.05 in WSW 3.7 mph 6.9 mph 55 % 0.00 in
04:58 36.8 °F 22.1 °F 30.06 in WNW 4.3 mph 9.2 mph 55 % 0.00 in
05:03 36.8 °F 22.1 °F 30.06 in West 3.0 mph 6.9 mph 55 % 0.00 in
05:08 36.7 °F 22.0 °F 30.05 in West 1.1 mph 3.5 mph 55 % 0.00 in
05:23 36.6 °F 22.4 °F 30.05 in WNW 2.7 mph 6.9 mph 56 % 0.00 in
05:28 36.6 °F 22.4 °F 30.06 in West 2.6 mph 6.9 mph 56 % 0.00 in
05:33 36.5 °F 22.3 °F 30.06 in WNW 6.1 mph 11.5 mph 56 % 0.00 in
05:38 36.5 °F 22.3 °F 30.06 in SW 2.8 mph 8.1 mph 56 % 0.00 in
05:41 36.5 °F 22.3 °F 30.06 in WSW 2.8 mph 5.8 mph 56 % 0.00 in
05:51 36.5 °F 22.3 °F 30.07 in West 4.8 mph 9.2 mph 56 % 0.00 in
05:56 36.4 °F 22.6 °F 30.06 in WNW 3.1 mph 6.9 mph 57 % 0.00 in
06:02 36.4 °F 22.6 °F 30.06 in West 1.5 mph 4.6 mph 57 % 0.00 in
06:12 36.3 °F 22.5 °F 30.06 in WSW 1.4 mph 3.5 mph 57 % 0.00 in
06:17 36.3 °F 22.5 °F 30.06 in West 2.3 mph 5.0 mph 57 % 0.00 in
06:22 36.2 °F 22.4 °F 30.06 in WNW 1.7 mph 4.0 mph 57 % 0.00 in
06:27 36.1 °F 22.3 °F 30.06 in WNW 4.4 mph 12.7 mph 57 % 0.00 in
06:32 36.1 °F 22.7 °F 30.06 in WNW 5.4 mph 11.5 mph 58 % 0.00 in
06:37 36.1 °F 22.7 °F 30.05 in WNW 2.9 mph 8.1 mph 58 % 0.00 in
06:47 36.1 °F 22.7 °F 30.06 in NW 2.3 mph 5.8 mph 58 % 0.00 in
06:52 36.1 °F 22.3 °F 30.05 in NW 1.8 mph 3.5 mph 57 % 0.00 in
06:57 36.0 °F 22.6 °F 30.06 in NNW 4.9 mph 11.5 mph 58 % 0.00 in
07:07 36.0 °F 22.6 °F 30.07 in WSW 1.0 mph 4.6 mph 58 % 0.00 in
07:12 35.9 °F 22.5 °F 30.07 in WNW 2.3 mph 7.0 mph 58 % 0.00 in
07:17 35.9 °F 22.5 °F 30.06 in NW 3.6 mph 4.6 mph 58 % 0.00 in
07:22 35.9 °F 23.0 °F 30.07 in WSW 1.0 mph 6.0 mph 59 % 0.00 in
07:32 36.0 °F 23.0 °F 30.08 in WNW 2.8 mph 7.0 mph 59 % 0.00 in
07:42 36.0 °F 23.0 °F 30.07 in NW 3.7 mph 5.8 mph 59 % 0.00 in
07:47 36.0 °F 23.0 °F 30.08 in WSW 3.3 mph 8.1 mph 59 % 0.00 in
07:52 36.1 °F 22.7 °F 30.08 in WNW 1.5 mph 3.5 mph 58 % 0.00 in
08:07 36.2 °F 22.8 °F 30.07 in WNW 1.9 mph 5.8 mph 58 % 0.00 in
08:12 36.2 °F 23.2 °F 30.08 in NW 2.5 mph 4.6 mph 59 % 0.00 in
08:17 36.2 °F 23.2 °F 30.08 in NW 4.8 mph 6.0 mph 59 % 0.00 in
08:23 36.2 °F 22.8 °F 30.07 in WSW 1.6 mph 8.1 mph 58 % 0.00 in
08:28 36.2 °F 22.8 °F 30.07 in West 1.3 mph 5.8 mph 58 % 0.00 in
08:33 36.3 °F 22.9 °F 30.07 in WNW 0.5 mph 4.0 mph 58 % 0.00 in
08:38 36.3 °F 22.9 °F 30.08 in West 3.2 mph 6.9 mph 58 % 0.00 in
08:48 36.3 °F 22.9 °F 30.08 in WSW 4.5 mph 5.8 mph 58 % 0.00 in
08:53 36.3 °F 23.3 °F 30.08 in WSW 3.6 mph 6.9 mph 59 % 0.00 in
08:58 36.3 °F 23.3 °F 30.08 in WNW 3.4 mph 4.6 mph 59 % 0.00 in
09:03 36.3 °F 23.3 °F 30.09 in West 4.0 mph 6.0 mph 59 % 0.00 in
09:08 36.4 °F 23.8 °F 30.09 in West 1.8 mph 3.5 mph 60 % 0.00 in
09:13 36.4 °F 23.4 °F 30.08 in NW 3.6 mph 5.8 mph 59 % 0.00 in
09:18 36.5 °F 23.5 °F 30.09 in WNW 2.9 mph 9.2 mph 59 % 0.00 in
09:28 36.7 °F 23.7 °F 30.10 in West 3.5 mph 7.0 mph 59 % 0.00 in
09:38 36.9 °F 23.9 °F 30.10 in West 3.6 mph 5.0 mph 59 % 0.00 in
09:43 37.1 °F 24.5 °F 30.09 in WNW 1.1 mph 2.3 mph 60 % 0.00 in
09:49 37.2 °F 24.6 °F 30.09 in South 1.0 mph 3.5 mph 60 % 0.00 in
09:59 37.5 °F 24.1 °F 30.09 in NW 2.3 mph 4.6 mph 58 % 0.00 in
10:19 37.8 °F 23.9 °F 30.09 in WNW 3.6 mph 6.0 mph 57 % 0.00 in
10:34 37.9 °F 24.4 °F 30.09 in WNW 1.5 mph 3.5 mph 58 % 0.00 in
10:39 37.9 °F 23.6 °F 30.09 in NW 2.4 mph 4.0 mph 56 % 0.00 in
10:44 37.9 °F 24.0 °F 30.07 in WNW 2.5 mph 5.0 mph 57 % 0.00 in
10:49 38.0 °F 24.1 °F 30.08 in NW 2.9 mph 6.0 mph 57 % 0.00 in
10:59 38.0 °F 24.1 °F 30.08 in WNW 1.9 mph 4.6 mph 57 % 0.00 in
11:09 38.2 °F 23.9 °F 30.09 in WNW 0.5 mph 4.6 mph 56 % 0.00 in
11:19 38.4 °F 24.5 °F 30.08 in WNW 4.3 mph 5.8 mph 57 % 0.00 in
11:24 38.5 °F 23.7 °F 30.07 in NW 2.3 mph 5.8 mph 55 % 0.00 in
11:29 38.5 °F 24.1 °F 30.07 in WSW 1.1 mph 5.8 mph 56 % 0.00 in
11:34 38.5 °F 23.7 °F 30.06 in West 2.8 mph 5.8 mph 55 % 0.00 in
11:39 38.6 °F 24.2 °F 30.05 in WSW 1.0 mph 3.5 mph 56 % 0.00 in
11:44 38.7 °F 25.2 °F 30.05 in West 0.8 mph 3.5 mph 58 % 0.00 in
11:54 38.9 °F 24.1 °F 30.06 in WNW 3.1 mph 5.8 mph 55 % 0.00 in
11:59 38.9 °F 24.1 °F 30.06 in WNW 4.0 mph 8.1 mph 55 % 0.00 in
12:05 38.9 °F 23.7 °F 30.06 in NW 3.9 mph 7.0 mph 54 % 0.00 in
12:10 39.1 °F 24.3 °F 30.05 in West 0.2 mph 1.2 mph 55 % 0.00 in
12:15 39.2 °F 24.8 °F 30.06 in SW 2.4 mph 5.8 mph 56 % 0.00 in
12:20 39.4 °F 25.0 °F 30.06 in WSW 3.4 mph 7.0 mph 56 % 0.00 in
12:25 39.6 °F 24.7 °F 30.05 in WNW 3.7 mph 8.0 mph 55 % 0.00 in
12:40 39.7 °F 23.5 °F 30.04 in WNW 2.4 mph 6.9 mph 52 % 0.00 in
12:45 39.7 °F 23.5 °F 30.04 in WNW 0.9 mph 3.5 mph 52 % 0.00 in
12:55 39.7 °F 23.0 °F 30.04 in West 2.0 mph 4.0 mph 51 % 0.00 in
13:00 39.7 °F 24.0 °F 30.04 in WSW 4.3 mph 6.9 mph 53 % 0.00 in
13:05 39.7 °F 24.0 °F 30.04 in SSW 1.5 mph 3.5 mph 53 % 0.00 in
13:10 39.8 °F 24.5 °F 30.04 in West 1.2 mph 4.0 mph 54 % 0.00 in
13:20 39.9 °F 24.1 °F 30.04 in WSW 4.3 mph 6.0 mph 53 % 0.00 in
13:26 40.0 °F 23.8 °F 30.04 in WSW 1.0 mph 5.0 mph 52 % 0.00 in
13:31 40.0 °F 23.8 °F 30.04 in West 1.1 mph 3.5 mph 52 % 0.00 in
13:36 40.1 °F 23.9 °F 30.04 in West 1.0 mph 3.0 mph 52 % 0.00 in
13:41 40.1 °F 23.4 °F 30.04 in West 5.0 mph 7.0 mph 51 % 0.00 in
13:46 40.1 °F 23.4 °F 30.04 in WSW 2.0 mph 6.0 mph 51 % 0.00 in
13:51 40.0 °F 23.3 °F 30.04 in SW 3.0 mph 6.0 mph 51 % 0.00 in
13:55 40.0 °F 23.8 °F 30.04 in SW 2.1 mph 3.5 mph 52 % 0.00 in
14:05 40.0 °F 23.8 °F 30.03 in Calm     52 % 0.00 in
14:11 40.0 °F 25.1 °F 30.03 in SW 1.0 mph 3.0 mph 55 % 0.00 in
14:16 40.0 °F 23.8 °F 30.03 in Calm   4.0 mph 52 % 0.00 in
14:21 40.0 °F 24.6 °F 30.03 in West 1.0 mph 3.0 mph 54 % 0.00 in
14:31 39.7 °F 23.5 °F 30.02 in WSW 2.0 mph 4.0 mph 52 % 0.00 in
14:36 39.7 °F 24.0 °F 30.02 in WSW 3.0 mph 5.0 mph 53 % 0.00 in
14:41 39.6 °F 24.3 °F 30.03 in West 1.0 mph 2.0 mph 54 % 0.00 in
14:46 39.5 °F 24.2 °F 30.02 in West 1.0 mph 4.0 mph 54 % 0.00 in
14:51 39.5 °F 23.8 °F 30.02 in Calm   2.0 mph 53 % 0.00 in
14:56 39.4 °F 24.1 °F 30.02 in Calm   3.0 mph 54 % 0.00 in
15:01 39.3 °F 23.6 °F 30.02 in Calm   1.2 mph 53 % 0.00 in
15:06 39.3 °F 24.0 °F 30.03 in West 1.7 mph 3.5 mph 54 % 0.00 in
15:11 39.2 °F 23.5 °F 30.03 in West 0.6 mph 2.0 mph 53 % 0.00 in
15:21 39.1 °F 23.8 °F 30.03 in WSW 1.6 mph 3.5 mph 54 % 0.00 in
15:26 39.0 °F 23.7 °F 30.03 in SW 1.6 mph 1.6 mph 54 % 0.00 in
15:36 38.9 °F 23.7 °F 30.02 in Calm     54 % 0.00 in
15:46 38.7 °F 23.5 °F 30.02 in SW 1.0 mph 2.3 mph 54 % 0.00 in
15:51 38.7 °F 23.5 °F 30.03 in Calm     54 % 0.00 in
15:56 38.6 °F 23.4 °F 30.03 in Calm     54 % 0.00 in
16:01 38.6 °F 23.8 °F 30.03 in SW 1.4 mph 3.5 mph 55 % 0.00 in
16:06 38.5 °F 23.3 °F 30.03 in SW 0.3 mph 1.2 mph 54 % 0.00 in
16:21 38.3 °F 23.5 °F 30.02 in Calm     55 % 0.00 in
16:26 38.3 °F 23.5 °F 30.02 in Calm     55 % 0.00 in
16:36 38.2 °F 23.4 °F 30.02 in SW 0.1 mph 1.2 mph 55 % 0.00 in
16:46 38.1 °F 23.3 °F 30.02 in SW 0.3 mph 1.2 mph 55 % 0.00 in
16:51 38.1 °F 23.3 °F 30.02 in Calm     55 % 0.00 in
16:56 38.0 °F 23.3 °F 30.02 in Calm     55 % 0.00 in
17:01 38.0 °F 23.3 °F 30.02 in Calm     55 % 0.00 in
17:11 37.9 °F 23.6 °F 30.02 in SW 0.4 mph 2.3 mph 56 % 0.00 in
17:16 37.9 °F 23.6 °F 30.02 in Calm     56 % 0.00 in
17:21 37.9 °F 23.6 °F 30.03 in SW 0.5 mph 1.2 mph 56 % 0.00 in
17:26 37.9 °F 23.6 °F 30.02 in SW 0.1 mph 1.2 mph 56 % 0.00 in
17:31 37.8 °F 23.5 °F 30.03 in SW 0.3 mph 2.3 mph 56 % 0.00 in
17:36 37.8 °F 23.5 °F 30.03 in SW 0.2 mph 2.3 mph 56 % 0.00 in
17:41 37.8 °F 23.5 °F 30.03 in Calm   2.3 mph 56 % 0.00 in
18:01 37.7 °F 23.4 °F 30.03 in SW 2.7 mph 3.5 mph 56 % 0.00 in
18:06 37.7 °F 23.4 °F 30.02 in WSW 0.5 mph 2.3 mph 56 % 0.00 in
18:11 37.7 °F 23.4 °F 30.02 in SSW 2.2 mph 3.5 mph 56 % 0.00 in
18:16 37.7 °F 23.4 °F 30.01 in SSW 0.6 mph 2.3 mph 56 % 0.00 in
18:21 37.7 °F 23.4 °F 30.01 in SW 2.4 mph 3.5 mph 56 % 0.00 in
18:26 37.7 °F 23.4 °F 30.00 in SW 0.4 mph 1.2 mph 56 % 0.00 in
18:41 37.7 °F 23.4 °F 30.00 in SSW 1.0 mph 3.5 mph 56 % 0.00 in
18:47 37.7 °F 23.4 °F 30.00 in SSW 0.3 mph 3.5 mph 56 % 0.00 in
18:52 37.7 °F 23.8 °F 30.00 in SW 1.2 mph 2.3 mph 57 % 0.00 in
19:01 37.6 °F 22.9 °F 30.01 in WSW 2.3 mph 5.8 mph 55 % 0.00 in
19:06 37.6 °F 22.9 °F 30.01 in WSW 1.5 mph 4.6 mph 55 % 0.00 in
19:11 37.6 °F 22.9 °F 30.01 in SW 0.3 mph 2.3 mph 55 % 0.00 in
19:16 37.6 °F 22.9 °F 30.00 in SW 1.5 mph 3.5 mph 55 % 0.00 in
19:26 37.6 °F 22.9 °F 29.99 in SW 0.5 mph 2.3 mph 55 % 0.00 in
19:31 37.6 °F 22.9 °F 29.99 in SW 1.8 mph 3.5 mph 55 % 0.00 in
19:41 37.5 °F 21.9 °F 29.99 in SSW 1.0 mph 3.5 mph 53 % 0.00 in
19:51 37.5 °F 21.9 °F 29.99 in West 0.2 mph 2.3 mph 53 % 0.00 in
19:56 37.5 °F 21.9 °F 29.99 in WSW 2.0 mph 4.6 mph 53 % 0.00 in
20:02 37.5 °F 21.9 °F 30.00 in WSW 0.6 mph 2.3 mph 53 % 0.00 in
20:07 37.4 °F 21.8 °F 30.00 in Calm   2.3 mph 53 % 0.00 in
20:17 37.4 °F 22.3 °F 30.00 in WSW 2.3 mph 4.6 mph 54 % 0.00 in
20:22 37.4 °F 22.3 °F 30.00 in West 1.0 mph 3.5 mph 54 % 0.00 in
20:37 37.4 °F 22.7 °F 29.99 in WSW 0.5 mph 3.5 mph 55 % 0.00 in
20:42 37.4 °F 22.7 °F 29.98 in West 1.1 mph 3.5 mph 55 % 0.00 in
20:47 37.4 °F 23.1 °F 29.98 in SW 0.6 mph 2.3 mph 56 % 0.00 in
20:52 37.4 °F 23.5 °F 29.98 in NW 0.8 mph 3.5 mph 57 % 0.00 in
20:57 37.5 °F 23.6 °F 29.98 in WNW 3.3 mph 8.0 mph 57 % 0.00 in
21:07 37.5 °F 23.2 °F 29.97 in West 1.9 mph 4.6 mph 56 % 0.00 in
21:12 37.4 °F 23.1 °F 29.97 in West 3.6 mph 5.0 mph 56 % 0.00 in
21:27 37.4 °F 22.7 °F 29.97 in West 4.5 mph 5.0 mph 55 % 0.00 in
21:32 37.4 °F 22.3 °F 29.97 in West 1.2 mph 4.6 mph 54 % 0.00 in
21:38 37.4 °F 22.3 °F 29.97 in West 3.0 mph 6.0 mph 54 % 0.00 in
21:43 37.4 °F 22.3 °F 29.98 in West 3.8 mph 5.8 mph 54 % 0.00 in
21:48 37.4 °F 22.3 °F 29.98 in SW 4.0 mph 6.9 mph 54 % 0.00 in
21:53 37.4 °F 21.8 °F 29.98 in WNW 4.9 mph 9.0 mph 53 % 0.00 in
21:58 37.3 °F 21.3 °F 29.98 in WNW 0.7 mph 3.5 mph 52 % 0.00 in
22:03 37.3 °F 21.7 °F 29.98 in WSW 4.9 mph 8.0 mph 53 % 0.00 in
22:08 37.2 °F 21.6 °F 29.98 in West 2.0 mph 3.5 mph 53 % 0.00 in
22:14 37.2 °F 21.6 °F 29.99 in WNW 2.0 mph 7.0 mph 53 % 0.00 in
22:19 37.2 °F 21.6 °F 29.98 in Calm   2.3 mph 53 % 0.00 in
22:24 37.1 °F 22.0 °F 29.98 in West 0.3 mph 2.3 mph 54 % 0.00 in
22:25 37.1 °F 22.4 °F 29.98 in WSW 2.2 mph 3.5 mph 55 % 0.00 in
22:28 37.1 °F 22.4 °F 29.98 in WSW 2.4 mph 6.0 mph 55 % 0.00 in
22:33 37.1 °F 22.0 °F 29.99 in West 1.3 mph 3.0 mph 54 % 0.00 in
22:43 37.0 °F 21.9 °F 29.99 in WNW 0.4 mph 2.3 mph 54 % 0.00 in
22:48 37.0 °F 21.9 °F 29.99 in WNW 0.3 mph 2.3 mph 54 % 0.00 in
22:53 37.0 °F 21.9 °F 29.98 in West 1.6 mph 3.5 mph 54 % 0.00 in
22:59 36.9 °F 21.8 °F 29.99 in SW 3.5 mph 7.0 mph 54 % 0.00 in
23:04 36.9 °F 22.2 °F 29.98 in West 1.9 mph 3.5 mph 55 % 0.00 in
23:09 36.9 °F 22.2 °F 29.98 in WSW 3.4 mph 3.5 mph 55 % 0.00 in
23:14 36.9 °F 22.2 °F 29.97 in West 1.9 mph 3.5 mph 55 % 0.00 in
23:19 36.9 °F 22.7 °F 29.97 in West 1.5 mph 3.5 mph 56 % 0.00 in
23:24 36.8 °F 22.1 °F 29.97 in West 2.4 mph 5.8 mph 55 % 0.00 in
23:29 36.8 °F 22.1 °F 29.96 in WNW 0.3 mph 4.6 mph 55 % 0.00 in
23:39 36.8 °F 21.7 °F 29.96 in SW 1.6 mph 6.0 mph 54 % 0.00 in
23:44 36.7 °F 21.6 °F 29.95 in West 2.5 mph 3.5 mph 54 % 0.00 in
23:49 36.7 °F 22.5 °F 29.96 in West 3.7 mph 6.0 mph 56 % 0.00 in
23:54 36.6 °F 22.4 °F 29.95 in WNW 1.3 mph 5.8 mph 56 % 0.00 in
23:55 36.6 °F 22.4 °F 29.95 in West 2.4 mph 5.8 mph 56 % 0.00 in
Crab Meadow Weather
Compliments of Weather Underground - 2.5 mb

Script developed by  Jim McMurry - jmcmurry@mwt.net Adapted for the template by  Wim van der Kuil - Leuven-Template.eu

Dew Point: The dew point is the temperature to which air must be cooled, at constant barometric pressure, for water vapor to condense into water. The condensed water is called dew. When the dew point temperature falls below freezing it is called the frost point, as the water no longer creates dew but instead creates frost. The dew point is associated with relative humidity. A high relative humidity indicates that the dew point is closer to the current air temperature. If the relative humidity is 100%, the dew point is equal to the current temperature. Given a constant dew point, an increase in temperature will lead to a decrease in relative humidity.